This demonstration page uses our WeatherBlox Daily Observations layout. Learn more.

Left ArrowRight Arrow

41.12389, -100.76542

Hourly Observations for December 24, 2017

Temp ( °F °C ) Dew Point ( °F °C ) Humidity (%) Winds ( mph kmh ) Pressure ( in mb ) Visibility ( mi km ) Precip ( " mm )
12:19 am 00:19 Cloudy with Light Snow 14 -10 10 -12.2 84 84 NW 7 11 30.48 1032 3 5 0.00 0.03
12:34 am 00:34 Cloudy with Light Snow 14 -10 10 -12.2 84 84 NW 9 15 30.48 1032 3 4 0.00 0.03
12:42 am 00:42 Cloudy with Light Snow 14 -10 10 -12.2 84 84 NW 10 17 30.48 1032 3 5 0.00 0.03
12:53 am 00:53 Cloudy with Light Snow 14 -10 9 -12.8 80 80 NW 9 15 30.41 1030 4 6 0.00 0.03
1:45 am 01:45 Cloudy with Light Snow 13 -10.6 10 -12.2 88 88 WNW 10 17 30.53 1034 3 4 0.01 0.25
1:53 am 01:53 Cloudy with Light Snow 14 -10 10 -12.2 84 84 WNW 12 19 30.42 1030 2 3 0.01 0.25
2:19 am 02:19 Cloudy with Light Snow 14 -10 10 -12.2 84 84 WNW 12 19 30.53 1034 2 3 0.00 0.03
2:49 am 02:49 Cloudy with Light Snow 12 -11 9 -13 85 85 WNW 12 19 30.50 1033 3 5 0.01 0.25
2:50 am 02:50 Cloudy with Light Snow 13 -10.6 9 -12.8 84 84 WNW 10 17 30.42 1030 3 5 0.01 0.25
3:53 am 03:53 Clear 2 -16.7 0 -17.8 91 91 NW 8 13 30.44 1031 10 16 0.00 0.03
4:53 am 04:53 Clear 1 -17.2 -2 -18.9 87 87 NNW 6 9 30.44 1031 7 11 0.00 0.00
5:53 am 05:53 Clear -4 -20 -6 -21.1 91 91 NW 9 15 30.45 1031 10 16 0.00 0.00
6:53 am 06:53 Clear with Mist and Fog -5 -20.6 -8 -22.2 87 87 WNW 7 11 30.45 1031 3 5 0.00 0.00
7:53 am 07:53 Clear 2 -16.7 -4 -20 76 76 W 9 15 30.47 1032 10 16 0.00 0.00
8:53 am 08:53 Sunny -1 -18.3 -5 -20.6 82 82 WNW 9 15 30.48 1032 10 16 0.00 0.00
9:53 am 09:53 Sunny 4 -15.6 -4 -20 69 69 W 8 13 30.49 1033 9 14 0.00 0.00
10:53 am 10:53 Sunny 7 -13.9 -1 -18.3 70 70 W 13 20 30.49 1033 10 16 0.00 0.00
11:53 am 11:53 Sunny 10 -12.2 1 -17.2 67 67 W 10 17 30.47 1032 10 16 0.00 0.00
12:53 pm 12:53 Sunny 15 -9.4 3 -16.1 59 59 W 14 22 30.43 1031 10 16 0.00 0.00
1:53 pm 13:53 Sunny 17 -8.3 5 -15 59 59 W 17 28 30.40 1029 10 16 0.00 0.00
2:53 pm 14:53 Sunny 20 -6.7 7 -13.9 57 57 WSW 10 17 30.37 1028 10 16 0.00 0.00
3:53 pm 15:53 Sunny 20 -6.7 6 -14.4 55 55 W 14 22 30.40 1030 10 16 0.00 0.00
4:53 pm 16:53 Sunny 17 -8.3 5 -15 59 59 W 7 11 30.41 1030 10 16 0.00 0.00
5:53 pm 17:53 Clear 11 -11.7 3 -16.1 70 70 WSW 7 11 30.42 1030 10 16 0.00 0.00
6:53 pm 18:53 Clear 4 -15.6 -1 -18.3 80 80 NNW 7 11 30.45 1031 10 16 0.00 0.00
7:53 pm 19:53 Clear 2 -16.7 -2 -18.9 83 83 NW 8 13 30.46 1031 10 16 0.00 0.00
8:53 pm 20:53 Clear -3 -19.4 -7 -21.7 82 82 WNW 9 15 30.49 1032 10 16 0.00 0.00
9:53 pm 21:53 Clear -1 -18.3 -7 -21.7 75 75 NNW 8 13 30.47 1032 10 16 0.00 0.00
10:53 pm 22:53 Clear 1 -17.2 -4 -20 79 79 NW 8 13 30.47 1032 10 16 0.00 0.00
11:53 pm 23:53 Clear 0 -17.8 -7 -21.7 72 72 N 9 15 30.44 1031 10 16 0.00 0.00

Powered by AerisWeather